一网星座-0242星 (ONEWEB-0242 )

导读

ONEWEB-0242是英国一网(OneWeb)低轨宽带星座的组网卫星,于2021年5月28日发射入轨,运行在1200公里高度的近地极地轨道,倾角约87.9度。卫星配备Ku/Ka波段天线,采用弯管式架构,服务航空、海事及偏远地区网络接入。它是OneWeb一代星座的重要组成,助力实现全球覆盖的低时延卫星互联网,符合空间碎片减缓规范,寿命超7年。

基本信息
目录编号:
48772
目录名称:
ONEWEB-0242
国际标识:
2021-045F
轨道中心:
EARTH
卫星名称:
一网星座-0242星
卫星全名:
一网星座-0242星 (ONEWEB-0242 )
卫星状态:
在轨 (已飞行1843 天)
发射日期:
2021-05-28 UTC
国别 :
英国 (GB)
星等 :
--
轨道信息
数据来源 国际轨道数据 AOE轨道数据
星历时间 2026-06-14T02:36:37+0800
15小时前
查看轨道信息
2026-06-14T03:00:00+0800
15小时前
查看轨道信息
半长轴 7579.917km 7579.909km
偏心率 0.0001781 0.0001705
轨道倾角 87.901° 87.903°
近地点辐角 98.405° 86.113°
升交点赤经 259.867° 259.863°
平近点角 261.728° 350.894°
近地点 1200.43km 1200.479km
远地点 1203.13km 1203.065km
周期 109.460分钟 109.460分钟
每日圈数 13.155464 13.155483
详细信息
平衡模式:
三轴稳定
覆盖范围:
全球
运营商:
一网卫星公司
运营商所在国:
英国
制造商(研发单位):
一网卫星公司
制造商所在国:
英国
使用方式:
暂无
卫星简介
OneWeb卫星网络由648颗重约125公斤的微型卫星组成,运行在1200公里的轨道上。 每颗卫星都能够提供至少每秒8千兆位的吞吐量,以使用其高吞吐量的Ku频段有效载荷为家庭和移动平台提供互联网接入。该卫星仍在工作。
2D轨道图
3D轨道图
轨道高度分析图
轨道倾角分析图
轨道综合分析图
查看轨道综合分析图